STARLINK-34588, 64729

Orbit data source: Space-Track

STARLINK-34588, 64729 is a payload satellite owned by SpaceX/Seattle (US) in LEO that was launched on Wed, 02 Jul 2025 UTC via an FALCON 9 launch vehicle from the Air Force Eastern Test Range (AFETR). Payload-class satellites include a variety of spacecraft equipped with specific instruments for various scientific and technological missions. These include communications satellites like Starlink; space stations such as the ISS; scientific satellites like the Hubble; Earth observation satellites from companies like Planet Labs, Umbra, and HawkEye 360; GPS; miniature CubeSats for education and research; and military/defense satellites.

Loading next visibility...
Identifier
64729, 2025-144F
Orbit
LEO
Country
Flag of USUS
Related business
Manufacturer
SpaceX/Seattle
Mission
Operational Commercial Communications
Bus & Motor
STARLINK V2MO, Unknown motor
Mass
575 kg wet, ~530 kg dry
Launch date (UTC)
2025-07-02 (1 year ago)
Launch vehicle
FALCON 9
Launch site
Air Force Eastern Test Range (AFETR)
Object type
Payload
Rocket body
Debris
Shape & HBR
Box + 2 Pan, 17.7 m
Radar Cross Section
36.964 m², Large (>1 m²)

Expand to show TLE details & history
Last TLE update: 17 hours ago

TLE from 17 hours ago
0 STARLINK-34588
1 64729U 25144F   26171.12521338  .00017809  00000-0  61175-3 0  9994
2 64729  53.1589  65.3538 0000811  92.0171 268.0923 15.30212109 55397
Epoch: 2026-06-20T03:00Z
TLE epoch observation values (Epoch: 2026-06-20T03:00:18.436Z)
Latitude
0.00003°
Longitude
111.93268°
Altitude
476.097 km
Speed
7.629 km/s
True Right ascension
04h 21m 24s
True Declination
0° 00' 00"
Sunlit
Object was in daylight at epoch
Visualization orbit readout
Latitude
Unknown
Longitude
Unknown
Altitude
Unknown
Speed
Unknown
Apparent Right ascension
Unknown
Apparent Declination
Unknown
Sunlit
N/A
Visualization observer readout
Local Sidereal Time
07:21:23
Azimuth
Unknown
Elevation
Unknown
Doppler factor
Unknown
Orbital elements
Apogee altitude
475.991 km
Perigee altitude
474.88 km
Semi-major axis
6,853.573 km
Eccentricity
0.00008
Inclination
53.1589°
RAAN
65.3538°
Arg. of periapsis
92.0171°
True anomaly
268.08301°
Mean anomaly
268.0923°
Eccentric anomaly
268.08766°
Mean motion
3.82532 °/min
Orbital period
94.11 mins
BSTAR
0.00061175
Loading maneuver chart data...
Computing Atmospheric mass density...
Loading historical data...
Loading historical data...
Loading historical data...
Loading historical data...
Loading historical data...
Loading historical data...
Loading historical data...

Documentation

Showing up to 5 results
|